Regional Weather Roundup
Issued by NWS

Home | Current Version | Previous Version | Text Only | Print | Product List | Glossary Off
Versions: 1 2 3 4 5 6 7 8 9 10 11 12 13 14 15 16 17 18 19 20 21 22 23 24 25 26 27 28 29 30 31 32 33 34 35 36 37 38 39 40 41 42 43 44 45 46 47 48 49 50

000
ASUS43 KMPX 290110
RWRMN
WEATHER ROUNDUP FOR MINNESOTA
NATIONAL WEATHER SERVICE TWIN CITIES/CHANHASSEN MN
800 PM CDT WED SEP 28 2016


NOTE: "FAIR" INDICATES FEW OR NO CLOUDS BELOW 12,000 FEET WITH NO
SIGNIFICANT WEATHER AND/OR OBSTRUCTIONS TO VISIBILITY. N/A MEANS
CURRENT SKY AND/OR WEATHER CONDITIONS ARE NOT AVAILABLE.

MNZ060>063-068>070-290200-
   Twin Cities Metro

CITY           SKY/WX    TMP DP  RH WIND       PRES   REMARKS
TWIN CITIES    MOCLDY    59  48  67 N8        30.31R
ST PAUL        CLOUDY    58  49  72 N8        30.32R
CRYSTAL        CLOUDY    57  47  69 N5        30.31R
BLAINE         MOCLDY    57  50  77 N6        30.32R
LAKEVILLE      MOCLDY    55  48  76 N7        30.31R
EDEN PRAIRIE   PTCLDY    58  48  69 N8        30.30R
LAKEVILLE      MOCLDY    55  48  76 N7        30.31R
SOUTH ST PAUL  CLOUDY    59  49  69 N8        30.31R
LAKE ELMO      MOCLDY    55  50  82 N7        30.33R
$$
MNZ001>005-007-008-013>017-022>024-027-028-290200-
   Northwest Minnesota

CITY           SKY/WX    TMP DP  RH WIND       PRES   REMARKS
BEMIDJI        CLOUDY    53  48  82 CALM      30.38R
HALLOCK        CLEAR     54  48  82 E6        30.38R FOG
ROSEAU         CLOUDY    55  50  82 CALM      30.39R
WARROAD        CLOUDY    52  48  87 CALM      30.40R
THIEF RVR FALL CLOUDY    55  49  80 E3        30.39R
CROOKSTON      CLOUDY    57  48  72 NE3       30.38R
FOSSTON        CLOUDY    52  45  76 CALM      30.39R
DETROIT LAKES  PTCLDY    55  46  71 E3        30.37R
MOORHEAD       CLEAR     55  46  71 NE7       30.37R
PARK RAPIDS    CLOUDY    57  45  64 E5        30.37R
MAHNOMEN       CLOUDY    55  47  75 NE7       30.37S
$$
MNZ006-009>011-018-025>026-290200-
   North Central Minnesota

CITY           SKY/WX    TMP DP  RH WIND       PRES   REMARKS
BAUDETTE       CLOUDY    54  49  83 CALM      30.39R
FLAG ISLAND    CLOUDY    57  50  77 NW5       30.38R
INTL FALLS     CLOUDY    55  48  77 N5        30.38R
WASKISH        CLOUDY    54  52  94 CALM      30.39R
BIG FORK       CLOUDY    55  50  82 CALM      30.38R
GRAND RAPIDS   CLOUDY    53  49  86 CALM      30.38R
ORR            CLOUDY    54  48  82 CALM      30.36R
COOK           CLOUDY    54  48  82 CALM      30.38R
WALKER         CLOUDY    54  45  72 NE5       30.38R
$$
MNZ012-019>021-037-290200-
   Northeast Minnesota

CITY           SKY/WX    TMP DP  RH WIND       PRES   REMARKS
DULUTH         CLOUDY    53  50  89 E3        30.35R
ELY            CLOUDY    54  48  82 CALM      30.37R
HIBBING        CLOUDY    54  49  83 N5        30.36R
EVELETH        CLOUDY    55  49  79 N3        30.37R
DULUTH HARBOR  MOCLDY    55  52  88 NE8       30.36R
TWO HARBORS    MOCLDY    55  52  88 CALM      30.34R
SILVER BAY     CLOUDY    54  52  94 CALM      30.34R
GRAND MARAIS     N/A     53  51  93 CALM      30.36R
G MARAIS ARPRT CLOUDY    52  46  82 N5        30.37R
$$
MNZ029>031-032-039>041-046>048-054>057-064-290200-
   West Central Minnesota

CITY           SKY/WX    TMP DP  RH WIND       PRES   REMARKS
FERGUS FALLS   CLEAR     55  46  71 CALM      30.37R
MORRIS         PTCLDY    54  46  76 NE5       30.33S
ALEXANDRIA     CLOUDY    57  48  72 NE7       30.36R
ELBOW LAKE     FAIR      55  48  76 CALM      30.35R
WADENA         CLOUDY    55  45  67 E5        30.36S
GLENWOOD       MOCLDY    54  48  82 E3        30.36R
BENSON         CLOUDY    57  46  67 SE5       30.35R
ORTONVILLE     CLEAR     55  46  71 CALM      30.34R
MADISON        CLEAR     55  48  76 N6        30.33R
WILLMAR        FAIR      55  48  76 NE5       30.36R
$$
MNZ033>034-036-042>043-049>051-058-059-290200-
   Central Minnesota

CITY           SKY/WX    TMP DP  RH WIND       PRES   REMARKS
ST CLOUD       PTCLDY    53  48  83 N3        30.34R
SAUK CENTRE    CLOUDY    56  47  71 NE8       30.36R
PAYNESVILLE    CLOUDY    56  48  73 N5        30.35S
AITKIN         CLOUDY    55  48  76 CALM      30.35R
PINE RIVER     CLOUDY    55  48  76 CALM      30.39R
BRAINERD       CLOUDY    55  47  74 CALM      30.37R
STAPLES        CLOUDY    55  45  67 CALM      30.37R
LONG PRAIRIE   CLOUDY    54  45  71 N6        30.37R
LITTLE FALLS   CLOUDY    54  45  71 CALM      30.36S
LITCHFIELD     CLOUDY    57  50  77 N3        30.34S
BUFFALO        CLOUDY    57  49  73 N5        30.34S
MAPLE LAKE     CLOUDY    58  51  79 CALM      30.34S
HUTCHINSON     CLOUDY    59  51  75 N6        30.34S
$$
MNZ037-044-045-052-053-290200-
   East Central Minnesota

CITY           SKY/WX    TMP DP  RH WIND       PRES   REMARKS
PRINCETON        N/A     57  50  77 N3        30.34R
MORA           CLOUDY    54  46  76 CALM      30.37R
CAMBRIDGE      CLOUDY    59  46  63 N3        30.33R
MOOSE LAKE     CLOUDY    54  48  82 CALM      30.34R
HINCKLEY       CLOUDY    55  50  82 N5        30.35R
CLOQUET        CLOUDY    54  46  76 CALM      30.36R
MCGREGOR       CLOUDY    55  48  76 NW3       30.36R
$$
MNZ071>073-080-081-089-090-097-098-290200-
   Southwest Minnesota

CITY           SKY/WX    TMP DP  RH WIND       PRES   REMARKS
MONTEVIDEO     PTCLDY    55  46  71 SE7       30.35R
GRANITE FALLS  CLEAR     57  48  73 NE7       30.35R
CANBY          CLEAR     56  47  72 CALM      30.34R
MARSHALL       PTCLDY    57  47  69 E9        30.33R
REDWOOD FALLS  CLOUDY    60  47  61 N6        30.33R
OLIVIA         CLOUDY    59  48  67 NE6       30.33S
PIPESTONE      CLEAR     55  45  67 CALM      30.32S
WINDOM         CLOUDY    57  46  67 NE8       30.32R
WORTHINGTON    MOCLDY    56  47  71 NE8       30.32R
JACKSON        CLEAR     54  43  66 NE6       30.32R
TRACY          CLOUDY    59  49  68 NE6       30.33R
SLAYTON        CLOUDY    55  46  71 NE3       30.33R
$$
MNZ065>067-074>077-082>085-091>093-290200-
   South Central Minnesota

CITY           SKY/WX    TMP DP  RH WIND       PRES   REMARKS
MANKATO        CLEAR     56  48  74 N9        30.31R
NEW ULM        CLEAR     55  46  71 NE5       30.32R
ST JAMES       CLEAR     54  46  76 N5        30.32R
FAIRMONT       CLOUDY    56  48  74 N7        30.31R
GLENCOE        CLOUDY    59  52  78 N5        30.32R
FARIBAULT      CLOUDY    55  50  82 N6        30.31R
OWATONNA       CLOUDY    57  48  72 N16       30.29R
WASECA         CLOUDY    55  50  82 N8        30.31R
ALBERT LEA     PTCLDY    57  50  77 N7        30.28R
$$
MNZ078>079-086>088-094>096-290200-
   Southeast Minnesota

CITY           SKY/WX    TMP DP  RH WIND       PRES   REMARKS
ROCHESTER      CLOUDY    57  51  80 N13       30.27R
RED WING       CLOUDY    59  50  72 N12       30.28R
DODGE CENTER   CLOUDY    55  48  76 N10       30.28R
WINONA         CLOUDY    59  52  77 NW7       30.24R
AUSTIN         CLOUDY    57  50  77 N8        30.26R
PRESTON        CLOUDY    56  48  74 N7        30.25R
$$
ABBREVIATIONS USED IN REMARKS
   TC - TEMPERATURES IN CELSIUS
  WCI - WIND CHILL INDEX
   HX - HEAT INDEX
  VSB - VISIBILITY
$$




USA.gov is the U.S. government's official web portal to all federal, state and local government web resources and services.